Location: Baili�vre
(50.0696°N, 4.2409°E)
Time: 08:23:46
(UTC+00:00)

Okean 1 - Pass Details

Date: 08 August 2020
Orbit: 539 x 555 km, 82.5° (Epoch: 26 September)

Event Time Altitude Azimuth Distance (km) Brightness Sun altitude
Rises 21:57:57 0° 343° (NNW) 2,740 8.4 -19.8°
Reaches altitude 10° 22:00:12 10° 336° (NNW) 1,843 7.2 -19.9°
Maximum altitude 22:03:59 39° 267° (W) 845 4.4 -20.2°
Enters shadow 22:05:25 28° 223° (SW) 1,048 4.5 -20.3°
